Location: Newark
(45.2500°N, 7.5833°E)
Time: 02:49:02
(UTC+00:00)

deb Explorer IX - All Passes

Search period start: 26 January 2020 00:00
Search period end: 05 February 2020 00:00
Orbit: 548 x 1101 km, 38.8° (Epoch: 25 January)

Date Brightness Start Highest point End Pass type
(mag) Time Alt. Az. Time Alt. Az. Time Alt. Az.
26 Jan - 00:44:56 10° W 00:51:44 43° SSW 00:58:12 10° SE night (unlit)
26 Jan - 02:33:04 10° W 02:38:09 21° SSW 02:42:55 10° SSE night (unlit)
26 Jan - 19:05:30 10° S 19:09:13 15° SE 19:13:06 10° ESE visible
26 Jan - 20:49:08 10° SW 20:55:24 37° SSE 21:01:58 10° E visible
26 Jan - 22:35:21 10° WSW 22:42:17 52° S 22:49:16 10° ESE night (unlit)
27 Jan - 00:22:28 10° W 00:29:16 43° SSW 00:35:49 10° SE night (unlit)
27 Jan - 02:10:34 10° W 02:15:42 21° SSW 02:20:34 10° SSE night (unlit)
27 Jan - 18:43:10 10° S 18:46:47 15° SE 18:50:35 10° ESE visible
27 Jan - 20:26:47 10° SW 20:32:56 37° SSE 20:39:29 10° E visible
27 Jan - 22:12:57 10° WSW 22:19:48 52° S 22:26:50 10° ESE night (unlit)
28 Jan - 00:00:00 10° W 00:06:47 43° SSW 00:13:25 10° SE night (unlit)
28 Jan - 01:48:04 10° W 01:53:15 21° SSW 01:58:12 10° SSE night (unlit)
28 Jan - 18:20:50 10° S 18:24:20 15° SE 18:28:01 10° ESE visible
28 Jan - 20:04:25 10° SW 20:10:28 37° SSE 20:16:58 10° E visible
28 Jan - 21:50:33 10° WSW 21:57:19 52° S 22:04:21 10° ESE night (unlit)
28 Jan - 23:37:33 10° W 23:44:18 43° SSW 23:51:00 10° SE night (unlit)
29 Jan - 01:25:35 10° W 01:30:46 21° SSW 01:35:48 10° SSE night (unlit)
29 Jan - 17:58:34 10° S 18:01:55 15° SE 18:05:28 10° ESE visible
29 Jan - 19:42:06 10° SW 19:48:00 36° SSE 19:54:27 10° E visible
29 Jan - 21:28:10 10° WSW 21:34:49 51° S 21:41:52 10° ESE visible
29 Jan - 23:15:06 10° W 23:21:48 42° SSW 23:28:32 10° SE night (unlit)
30 Jan - 01:03:07 10° WSW 01:08:18 21° SSW 01:13:22 10° SSE night (unlit)
30 Jan - 17:36:17 10° S 17:39:29 15° SE 17:42:53 10° ESE visible
30 Jan - 19:19:46 10° SW 19:25:32 36° SSE 19:31:54 10° E visible
30 Jan - 21:05:48 10° WSW 21:12:20 51° S 21:19:21 10° ESE visible
30 Jan - 22:52:41 10° W 22:59:18 42° SSW 23:06:03 10° SE night (unlit)
31 Jan - 00:40:39 10° WSW 00:45:48 21° SSW 00:50:54 10° SSE night (unlit)
31 Jan - 17:14:02 10° S 17:17:04 14° SE 17:20:17 10° ESE visible
31 Jan - 18:57:28 10° SW 19:03:05 36° SSE 19:09:21 10° E visible
31 Jan - 20:43:26 10° WSW 20:49:51 51° S 20:56:49 10° ESE visible
31 Jan - 22:30:17 10° W 22:36:47 41° SSW 22:43:32 10° SE night (unlit)
01 Feb - 00:18:12 10° WSW 00:23:18 21° SSW 00:28:24 10° SSE night (unlit)
01 Feb - 16:51:48 10° S 16:54:39 14° SE 16:57:40 10° ESE daylight
01 Feb - 18:35:09 10° SW 18:40:38 35° SSE 18:46:46 10° E visible
01 Feb - 20:21:06 10° WSW 20:27:22 50° S 20:34:16 10° ESE visible
01 Feb - 22:07:53 10° W 22:14:17 41° SSW 22:21:01 10° SE night (unlit)
01 Feb - 23:55:47 10° WSW 00:00:48 20° SSW 00:05:52 10° SSE night (unlit)
02 Feb - 16:29:36 10° S 16:32:15 13° SE 16:35:03 10° ESE daylight
02 Feb - 18:12:53 10° SW 18:18:11 35° SSE 18:24:12 10° E visible
02 Feb - 19:58:46 10° WSW 20:04:53 50° S 20:11:42 10° ESE visible
02 Feb - 21:45:30 10° W 21:51:46 40° SSW 21:58:29 10° SE visible
02 Feb - 23:33:22 10° WSW 23:38:18 20° SSW 23:43:19 10° S night (unlit)
03 Feb - 16:07:24 10° SSE 16:09:50 13° SE 16:12:25 10° ESE daylight
03 Feb - 17:50:36 10° SW 17:55:45 34° SSE 18:01:38 10° E visible
03 Feb - 19:36:27 10° WSW 19:42:24 49° S 19:49:07 10° ESE visible
03 Feb - 21:23:08 10° W 21:29:16 40° SSW 21:35:54 10° SE visible
03 Feb - 23:10:59 10° WSW 23:15:47 20° SSW 23:20:43 10° S night (unlit)
04 Feb - 15:45:14 10° SSE 15:47:27 13° SE 15:49:47 10° ESE daylight
04 Feb - 17:28:20 10° SW 17:33:20 34° SSE 17:39:02 10° E visible
04 Feb - 19:14:09 10° WSW 19:19:57 49° S 19:26:32 10° ESE visible
04 Feb - 21:00:48 10° W 21:06:46 39° SSW 21:13:19 10° SE visible
04 Feb - 22:48:37 10° WSW 22:53:17 19° SSW 22:58:07 10° S night (unlit)
